GSAT-N2

Last updated on Thu Nov 21 2024 00:02:07 GMT+0000 (Coordinated Universal Time)

1 62028U 24214A 24324.56617108 -.00000439 00000+0 00000+0 0 9995 2 62028 27.6574 169.3489 8181034 177.6063 351.8626 1.25841603 120
UTC large
Height (km)
Speed (km/s)
/
Latitude / Longitude
Inclination (degrees)
Orbital Period (minutes)
Azimuth
Elevation
Range (km)
Doppler Factor

Next 0 passes for location: London (51.5072 / 0.1276)

Sorry there are no passes over London.